GFSNIL_sfc_wetblb_198.txt.gz
Wetbulb
49.73 50.46 48.53 49.64 47.85 45.63 43.97 42.21 41.03 42.03 41.56 40.55 39.97 39.72 39.72 39.12 38.60 38.69 38.37 37.01 36.92 36.63
49.66 47.98 49.45 48.11 47.29 44.86 42.62 40.29 41.37 41.33 40.61 39.84 39.22 39.12 38.93 38.46 37.34 37.47 37.32 36.13 35.73 35.59
46.12 47.58 48.63 47.09 44.88 42.41 41.16 40.37 40.45 40.17 39.76 38.90 38.28 37.96 38.17 37.31 36.57 36.32 35.99 35.20 34.42 34.14
47.15 47.65 46.52 45.46 43.41 41.61 40.79 40.14 39.83 39.46 38.77 38.03 37.53 37.46 37.06 36.69 35.59 35.07 34.24 33.61 33.33 32.27
46.96 45.66 44.68 43.74 41.80 40.69 40.08 39.93 39.39 38.89 38.18 37.61 36.73 36.44 36.30 35.10 34.74 34.53 33.33 33.01 32.39 31.28
44.83 44.10 43.62 42.01 40.08 39.67 39.29 38.93 38.35 37.96 37.55 36.66 36.19 35.64 35.81 35.42 34.49 34.23 33.81 32.86 31.74 31.21
43.16 42.75 42.11 40.33 38.96 38.45 38.50 37.77 37.59 37.43 37.14 36.57 35.87 35.42 34.96 34.15 33.66 33.26 32.49 31.48 31.21 30.97
41.54 41.50 40.31 38.39 37.39 37.09 37.03 37.19 37.37 36.46 35.95 35.68 34.99 34.67 34.38 33.39 32.79 32.22 31.06 30.13 29.66 29.75
39.46 38.19 37.14 36.48 36.11 35.78 35.72 36.03 35.39 34.77 34.97 34.86 33.83 33.78 33.48 33.20 32.09 30.44 29.56 28.92 29.04 28.92
37.53 36.20 35.62 35.26 34.65 34.24 34.19 34.60 34.23 34.59 34.51 34.07 34.23 33.08 33.67 32.81 31.21 30.67 29.90 29.11 27.86 27.64
35.61 35.02 34.33 34.09 33.56 33.85 34.12 33.59 33.87 33.86 33.78 33.50 32.76 33.03 34.05 33.72 31.71 30.62 29.99 29.09 28.54 27.81
34.54 33.62 33.10 32.56 32.86 34.36 33.84 33.43 33.09 32.73 33.02 31.67 32.39 32.78 33.93 33.92 32.02 29.18 28.53 28.43 28.29 27.76
34.09 33.70 33.13 33.57 32.81 33.96 33.89 32.79 32.31 31.12 31.81 31.43 31.92 32.52 33.54 33.90 32.74 29.84 28.32 27.26 26.60 26.48
33.65 33.32 34.39 33.62 33.50 33.42 32.70 32.35 32.00 31.15 31.71 31.10 30.52 31.37 33.22 34.15 32.52 31.25 30.09 29.14 27.36 26.44

GFSNIL_sfc_wetblb_201.txt.gz
Wetbulb
54.68 50.36 50.38 49.86 50.26 48.64 47.06 45.45 44.39 44.32 44.03 42.98 42.50 42.28 42.36 41.95 41.53 41.60 40.70 39.45 39.20 37.96
51.31 49.74 49.96 51.57 50.49 49.23 47.56 44.34 43.55 43.67 42.53 41.90 41.55 41.58 41.40 40.69 39.36 40.15 39.95 38.62 38.06 36.97
50.10 50.03 51.54 50.14 48.90 47.38 44.79 42.77 42.80 42.56 42.16 41.27 40.84 40.63 40.90 39.93 39.23 38.84 38.25 37.32 36.58 35.76
50.22 50.21 49.00 47.80 47.61 45.22 43.14 42.39 41.93 41.88 41.22 40.39 39.64 39.63 39.60 38.86 37.75 37.14 36.00 35.76 35.47 34.26
49.43 48.92 48.24 47.91 45.91 44.03 42.15 41.92 41.76 41.21 40.45 39.77 39.27 38.80 38.34 37.11 36.47 36.07 34.76 34.55 34.04 33.06
49.48 48.24 47.53 46.34 43.70 42.35 41.46 41.11 41.03 40.31 39.51 38.88 38.42 37.36 37.49 37.19 35.66 35.67 35.39 34.70 33.18 32.59
47.84 47.23 46.62 44.16 41.79 41.20 40.99 40.30 39.61 39.59 39.23 38.70 37.70 36.64 36.50 35.92 35.23 35.01 34.59 33.62 32.80 32.48
46.01 45.97 44.15 41.83 40.74 40.19 39.70 39.62 39.42 38.42 37.87 37.38 36.54 36.27 35.64 34.46 34.37 33.64 32.68 31.47 30.97 30.82
43.85 42.37 40.49 40.04 38.23 37.13 37.71 37.58 36.90 36.06 35.41 35.31 35.86 36.65 36.35 34.87 33.00 31.70 30.65 30.32 30.14 29.55
40.17 38.38 38.41 37.23 36.31 35.65 35.85 35.87 34.99 34.66 34.91 34.57 35.38 35.77 35.16 34.52 31.82 31.30 30.70 30.14 28.73 28.28
38.45 37.18 35.61 34.92 34.62 34.96 34.93 34.47 34.11 34.14 34.39 34.52 34.61 35.74 34.85 34.16 31.77 31.21 30.84 29.96 29.48 28.53
36.89 34.89 34.10 33.85 34.06 34.39 33.91 33.58 33.57 33.31 33.53 32.88 32.89 35.02 34.98 34.11 31.51 30.27 29.36 29.31 29.25 28.57
36.10 35.11 34.47 34.47 33.55 33.38 33.74 32.72 32.37 31.34 32.26 32.01 32.26 34.66 34.54 34.25 32.01 30.69 29.41 28.69 28.08 28.73
34.65 34.23 34.87 33.94 33.03 32.93 32.66 32.16 31.59 31.25 31.44 31.02 31.11 32.35 34.35 34.91 32.05 31.61 30.62 29.64 28.35 27.45

GFSNIL_sfc_wetblb_207.txt.gz
Wetbulb
56.38 53.46 50.53 48.58 48.10 46.96 45.90 43.84 42.08 40.53 39.96 39.10 38.68 38.09 37.22 35.89 35.29 34.18 33.00 32.52 31.88 30.66
55.69 53.35 51.86 50.36 49.17 48.18 45.44 43.42 40.74 40.86 39.05 37.62 37.24 37.12 35.97 34.90 34.07 33.10 31.85 31.01 30.88 30.00
54.89 53.52 52.11 51.03 48.88 45.88 44.21 42.53 40.47 38.23 37.75 36.40 36.26 35.90 34.89 33.65 33.80 32.83 31.36 30.95 30.16 29.16
52.03 52.05 51.04 50.42 48.24 45.37 42.60 41.49 39.52 38.69 37.21 36.25 35.43 35.26 34.16 33.50 33.14 32.05 31.08 29.94 29.21 28.43
50.91 50.01 49.72 48.35 46.14 43.01 41.03 39.34 39.53 37.99 37.04 36.20 35.54 34.90 34.20 33.15 32.84 31.12 29.51 29.30 28.48 28.11
49.45 48.09 47.42 46.41 43.47 40.79 39.95 39.17 38.46 37.93 36.70 36.09 35.38 34.23 34.14 33.37 32.18 31.27 29.41 28.85 28.18 27.49
47.10 46.91 45.98 43.65 41.31 39.63 38.87 38.09 37.78 37.48 37.00 35.99 34.72 33.98 33.77 32.49 31.28 30.29 29.40 29.15 28.40 27.33
45.32 45.74 43.44 40.74 38.56 37.68 37.76 38.03 37.84 36.54 35.76 34.92 34.36 34.28 32.85 31.74 30.07 29.34 28.64 28.68 28.51 28.04
44.13 42.24 40.30 37.83 37.24 36.38 35.46 35.75 35.56 34.71 34.38 33.62 34.53 36.70 36.36 32.42 29.61 29.37 28.90 28.38 27.63 27.66
39.88 37.80 36.62 35.74 35.01 34.64 35.01 34.62 33.69 32.85 32.36 31.73 32.12 37.52 37.10 34.70 29.84 29.34 28.73 28.23 28.02 26.94
37.90 36.86 34.62 34.57 34.59 33.41 33.17 33.41 32.57 31.78 31.45 31.15 31.27 37.72 37.50 34.66 29.51 28.98 28.76 28.47 27.90 27.05
37.18 35.00 34.21 34.32 33.56 32.39 32.32 31.52 31.51 31.30 30.61 30.29 30.38 37.16 37.10 34.72 29.07 28.61 28.42 28.46 27.50 26.76
35.38 35.60 35.11 34.65 32.27 30.67 31.79 31.22 30.84 30.84 30.45 29.88 30.30 36.57 36.71 34.35 29.80 28.58 28.57 28.05 27.54 28.18
34.39 34.56 34.26 31.61 30.00 30.66 30.42 30.49 29.57 29.27 28.56 28.96 29.48 31.37 36.77 36.71 30.51 30.09 28.84 28.15 26.05 25.93

GFSNIL_sfc_wetblb_210.txt.gz
Wetbulb
56.72 54.34 52.87 50.37 49.02 47.23 46.10 44.86 44.89 43.56 41.66 41.65 39.75 40.11 37.54 36.10 35.22 34.56 33.43 32.44 31.77 30.86
56.11 55.26 52.61 49.97 48.41 47.73 46.65 45.04 44.00 42.88 39.84 40.48 38.85 38.68 36.69 35.16 33.84 32.67 31.26 30.52 30.08 29.38
56.39 55.62 53.53 50.78 49.24 48.71 46.08 43.44 42.14 41.46 40.25 39.34 37.52 37.54 35.45 34.25 33.31 32.47 30.78 30.10 29.29 28.38
56.95 55.31 53.81 52.17 50.82 48.44 45.84 43.88 42.26 41.20 39.39 38.41 36.77 36.06 34.75 33.59 32.92 32.16 31.01 29.81 28.79 28.83
55.85 54.20 52.51 51.94 49.80 46.68 44.32 43.00 42.09 40.55 39.30 37.20 37.00 35.63 34.55 33.67 33.15 32.11 30.42 28.84 28.50 28.16
52.99 52.37 51.93 50.78 46.99 44.71 43.03 41.87 40.47 39.46 38.15 37.37 35.91 35.13 34.18 34.50 33.23 32.13 30.80 29.41 28.77 28.24
51.14 51.09 50.02 47.23 44.79 42.86 41.86 40.35 39.74 39.20 38.52 36.43 36.04 35.25 34.51 33.78 32.66 31.55 29.82 29.90 29.25 28.08
47.48 47.58 46.01 43.55 41.63 39.79 40.28 40.32 39.56 37.24 35.91 35.81 35.36 34.93 34.28 33.09 31.46 30.69 29.49 29.19 28.87 28.09
45.17 44.07 42.79 40.89 39.47 38.19 37.52 37.63 36.74 34.97 35.29 34.40 35.25 36.97 36.78 33.29 30.91 30.30 29.97 29.33 28.43 28.17
40.90 39.06 38.01 38.00 36.86 36.26 36.80 35.61 34.59 33.98 33.44 33.14 33.07 37.43 37.28 34.97 30.78 30.46 29.77 28.87 28.63 28.09
38.94 38.41 36.50 36.32 36.16 35.17 34.02 33.99 33.36 32.54 32.73 32.43 32.45 37.66 37.49 34.66 30.72 29.94 29.27 29.06 28.97 28.05
37.57 36.07 35.33 35.11 34.52 33.16 32.88 32.15 32.16 32.15 31.88 32.04 31.42 37.43 37.42 34.97 29.96 29.37 29.27 29.03 28.33 27.96
36.63 36.20 35.70 35.10 33.33 31.19 32.65 32.02 31.39 31.32 31.68 31.34 31.80 36.39 37.46 35.52 30.56 29.38 28.63 28.18 27.86 28.63
35.36 35.57 35.90 34.02 30.78 31.93 31.29 31.14 30.73 30.55 29.79 30.43 30.64 32.03 37.39 37.54 30.73 30.27 28.58 28.09 26.75 26.46

GFSNIL_sfc_wetblb_216.txt.gz
Wetbulb
58.36 58.06 55.90 54.36 54.82 53.68 52.86 51.54 48.65 46.29 45.36 44.04 44.63 44.45 47.07 47.47 46.50 45.13 44.21 41.49 37.63 36.76
58.19 58.07 56.19 54.89 54.68 54.43 53.20 50.54 46.31 46.09 44.49 42.80 42.39 43.15 42.31 45.00 42.96 42.52 41.18 39.62 36.04 34.38
58.07 58.19 56.70 54.39 53.49 52.78 50.35 47.45 45.51 45.06 44.31 42.56 42.28 42.68 41.58 40.59 40.29 39.12 36.68 34.45 34.33 31.50
57.94 57.73 56.39 54.05 53.23 51.68 49.77 48.11 46.55 44.99 43.74 42.96 41.55 41.03 40.85 40.57 37.40 36.41 34.46 32.07 32.46 31.26
58.11 57.28 55.86 54.09 52.99 51.63 50.05 48.40 47.48 45.41 44.05 43.19 41.99 40.21 39.49 38.53 37.14 35.50 33.60 32.28 30.82 30.23
57.80 56.94 56.05 54.64 54.08 51.80 50.74 48.79 47.18 45.73 44.29 43.01 41.98 40.72 40.54 38.97 36.39 35.61 34.54 32.33 30.93 30.22
57.37 56.88 56.73 56.27 54.74 52.21 51.19 49.45 47.28 46.04 45.72 44.50 42.68 40.86 39.60 38.92 36.58 34.97 33.11 32.10 30.34 30.12
57.04 57.15 56.37 54.68 52.20 50.96 50.54 49.27 47.66 45.44 44.42 43.38 41.75 40.46 38.37 36.76 35.18 33.84 31.88 31.35 30.44 30.28
50.69 51.28 51.06 50.10 48.78 47.95 45.75 44.38 43.52 42.47 41.81 40.92 41.51 39.65 38.38 36.38 34.60 33.42 32.00 30.25 29.95 29.78
44.92 43.90 42.98 42.75 42.74 42.22 43.09 42.19 41.09 40.70 39.78 39.24 39.52 38.77 38.20 36.51 34.15 32.98 32.17 30.49 30.11 29.03
40.89 41.68 40.30 40.51 40.66 39.38 39.30 39.18 38.08 37.33 37.51 37.10 36.48 38.88 38.37 35.46 32.07 32.24 30.76 30.61 30.46 29.92
39.14 38.70 37.61 37.51 37.18 36.45 36.06 35.59 36.09 35.62 35.86 34.76 33.30 38.24 37.71 35.17 32.02 32.27 30.44 30.39 30.24 30.08
38.02 38.30 38.10 37.67 35.96 34.47 34.98 33.79 33.36 33.66 33.89 33.16 33.12 37.51 37.73 36.04 32.09 30.24 29.27 29.05 29.08 29.98
35.23 35.59 37.34 35.77 33.43 33.47 33.51 33.27 33.17 32.86 32.39 32.93 33.47 35.47 37.94 36.66 31.50 31.47 30.20 29.73 28.21 28.22

GFSNIL_sfc_wetblb_222.txt.gz
Wetbulb
62.34 62.24 61.82 61.29 60.94 60.82 59.47 58.46 59.48 58.98 58.81 57.32 55.50 56.13 57.02 56.00 55.27 54.14 52.59 50.07 47.25 49.10
61.91 61.98 61.73 61.57 61.49 61.04 60.67 59.15 59.51 59.13 58.29 57.70 56.05 55.61 56.26 55.55 54.67 54.06 53.25 51.49 50.13 49.31
61.58 61.92 62.61 62.15 60.44 60.27 60.02 59.92 58.94 58.42 57.92 57.65 56.47 54.80 54.75 54.77 54.65 53.60 53.01 52.13 49.26 47.14
61.10 61.41 61.47 61.39 60.59 59.82 60.17 59.84 58.26 57.40 57.15 56.83 55.20 54.01 52.96 53.27 53.18 52.48 52.37 50.29 49.09 46.26
60.69 61.11 60.71 60.67 59.96 59.94 59.50 58.89 57.87 57.27 56.38 55.68 54.66 53.47 51.68 51.25 50.78 50.42 49.50 48.15 46.11 44.79
59.49 59.91 60.12 59.87 59.73 59.30 59.13 58.27 57.46 56.88 55.43 53.94 53.12 52.24 51.30 51.14 50.49 47.76 48.12 46.76 44.25 43.83
58.02 58.86 59.00 59.41 59.26 58.70 58.30 57.42 55.78 55.55 54.39 53.54 52.61 51.74 50.49 49.42 49.38 46.15 45.09 43.62 43.47 40.56
57.06 58.24 58.50 58.62 58.63 57.09 56.39 56.65 55.72 54.37 53.00 52.72 51.52 50.25 49.28 47.04 45.25 42.61 41.97 39.11 39.79 38.56
47.32 47.71 50.04 54.45 56.11 55.09 54.57 54.30 53.91 52.09 51.16 50.71 49.72 45.52 43.25 43.58 42.45 39.81 38.33 37.03 37.40 36.76
42.56 43.09 42.43 42.94 44.89 45.30 47.32 47.68 48.29 48.18 48.40 47.69 47.48 42.16 41.83 40.34 40.02 38.37 38.67 38.15 36.08 34.11
37.24 38.67 38.94 39.59 40.00 41.18 41.47 42.43 42.25 41.78 41.92 41.81 41.95 41.38 41.16 38.64 38.93 38.11 37.50 37.52 36.23 35.35
34.12 35.84 37.48 37.94 38.63 38.85 37.99 38.10 38.29 37.54 37.70 37.45 38.06 39.99 40.03 38.30 35.73 35.44 35.24 35.27 35.38 34.90
33.58 34.89 36.07 37.00 37.35 36.85 36.55 35.64 35.58 35.57 36.17 34.96 37.04 38.53 39.33 38.51 34.99 34.25 33.70 33.22 32.96 32.61
32.60 33.05 34.64 35.51 36.19 35.66 35.77 35.14 34.92 33.87 33.51 34.14 34.84 36.21 38.91 38.58 34.58 34.24 32.79 32.11 31.16 31.88